Location: Carrières
(48.9495°N, 2.0407°E)
Time: 13:44:29
(UTC+00:00)

deb Kosmos-2227 - Pass Details

Date: 29 May 2025
Orbit: 823 x 993 km, 71.2° (Epoch: 15 June)

Event Time Altitude Azimuth Distance (km) Brightness Sun altitude
Exits shadow 02:45:18 - 188° (S) 3,057 ? -9.3°
Reaches altitude 10° 02:46:21 10° 186° (S) 2,680 ? -9.1°
Maximum altitude 02:52:26 56° 110° (ESE) 1,154 ? -8.5°
Drops below altitude 10° 02:58:43 10° 34° (NE) 2,763 ? -7.8°
Sets 03:01:21 0° 31° (NNE) 3,719 ? -7.5°
